FW1312 Weather Reports


Display with metric or nautical units.
time (UTC)temp
F
wind
direction
speed
MPH
gust
MPH
rain 1hr
in
rain 24hr
in
rain mn
in
humidity
%
barometer
mb
20210625061627 80 150 4.0 12.0 0.00 0.00 0.00 81 1013.4
20210625060017 80 144 5.0 9.0 0.00 0.00 0.00 80 1013.4
20210625054646 80 149 4.0 12.0 0.00 0.00 0.00 80 1013.5
20210625053104 81 178 5.0 11.0 0.00 0.00 0.00 80 1013.4
20210625051527 81 177 7.0 15.0 0.00 0.00 0.00 79 1013.4
20210625050007 81 169 7.0 15.0 0.00 0.00 0.00 79 1013.3
20210625044559 82 153 6.0 16.0 0.00 0.00 0.00 79 1013.4
20210625043007 82 161 6.0 10.0 0.00 0.00 0.00 79 1013.3
20210625041600 82 194 6.0 10.0 0.00 0.00 0.00 78 1013.2
20210625040036 83 182 6.0 12.0 0.00 0.00 0.00 78 1012.9
20210625034542 83 170 5.0 11.0 0.00 0.00 0.00 78 1012.6
20210625033147 83 173 7.0 12.0 0.00 0.00 0.00 77 1012.5
20210625031604 84 151 5.0 13.0 0.00 0.00 0.00 77 1012.2
20210625030002 84 173 5.0 11.0 0.00 0.00 0.00 77 1012.0
20210625024554 84 227 6.0 13.0 0.00 0.00 0.00 76 1012.0
20210625023011 84 177 7.0 12.0 0.00 0.00 0.00 76 1011.8
20210625021636 85 196 6.0 12.0 0.00 0.00 0.00 76 1011.7
20210625020050 85 177 6.0 12.0 0.00 0.00 0.00 75 1011.7
20210625014643 85 155 6.0 11.0 0.00 0.00 0.00 75 1011.6
20210625013022 85 150 5.0 10.0 0.00 0.00 0.00 75 1011.6
20210625011645 86 141 3.0 12.0 0.00 0.00 0.00 75 1011.7
20210625010023 86 159 6.0 15.0 0.00 0.00 0.00 74 1011.5
20210625004716 87 163 7.0 17.0 0.00 0.00 0.00 74 1011.5
20210625003108 88 144 10.0 16.0 0.00 0.00 0.00 73 1011.4
20210625001617 89 133 9.0 21.0 0.00 0.00 0.00 74 1011.4
20210625000056 89 102 8.0 14.0 0.00 0.00 0.00 73 1011.2
20210624234711 91 110 5.0 14.0 0.00 0.00 0.00 73 1011.2
20210624233036 91 145 6.0 13.0 0.00 0.00 0.00 74 1011.0
20210624231622 91 136 4.0 11.0 0.00 0.00 0.00 74 1011.0
20210624230047 91 195 6.0 12.0 0.00 0.00 0.00 75 1011.1
20210624224720 91 150 4.0 12.0 0.00 0.00 0.00 75 1011.1
20210624223051 91 157 3.0 10.0 0.00 0.00 0.00 75 1011.2
20210624221709 91 169 6.0 11.0 0.00 0.00 0.00 75 1011.4
20210624220107 91 173 5.0 14.0 0.00 0.00 0.00 75 1011.3
20210624214613 92 138 5.0 9.0 0.00 0.00 0.00 76 1011.7
20210624213009 93 116 6.0 11.0 0.00 0.00 0.00 77 1011.7
20210624211554 92 146 6.0 14.0 0.00 0.00 0.00 77 1012.0
20210624210025 92 187 4.0 10.0 0.00 0.00 0.00 78 1012.0
20210624204502 92 196 2.0 9.0 0.00 0.00 0.00 79 1012.2
20210624203126 92 113 3.0 11.0 0.00 0.00 0.00 79 1012.3
20210624200150 91 188 3.0 13.0 0.00 0.00 0.00 80 1012.7
20210624194556 90 154 6.0 11.0 0.00 0.00 0.00 81 1012.8
20210624193005 90 121 6.0 10.0 0.00 0.00 0.00 81 1013.1
20210624191614 91 219 8.0 12.0 0.00 0.00 0.00 82 1013.1
20210624190044 90 194 6.0 14.0 0.00 0.00 0.00 83 1013.2
20210624184703 90 173 6.0 13.0 0.00 0.00 0.00 84 1013.3
20210624183044 90 174 6.0 10.0 0.00 0.00 0.00 84 1013.7
20210624181651 89 155 6.0 13.0 0.00 0.00 0.00 85 1013.9
20210624180026 89 206 7.0 13.0 0.00 0.00 0.00 86 1014.2
20210624174704 89 196 10.0 14.0 0.00 0.00 0.00 86 1014.3
20210624173104 88 215 6.0 11.0 0.00 0.00 0.00 87 1014.3
20210624171510 87 176 6.0 13.0 0.00 0.00 0.00 87 1014.4
20210624170118 87 229 6.0 11.0 0.00 0.00 0.00 88 1014.5
20210624164705 86 208 7.0 18.0 0.00 0.00 0.00 88 1014.6
20210624163052 86 210 6.0 15.0 0.00 0.00 0.00 89 1014.8
20210624161509 86 216 7.0 14.0 0.00 0.00 0.00 89 1014.9
20210624160106 84 223 6.0 14.0 0.00 0.00 0.00 89 1015.0
20210624154533 84 217 5.0 12.0 0.00 0.00 0.00 89 1015.0
20210624153006 83 188 7.0 14.0 0.00 0.00 0.00 90 1015.1
20210624151549 83 189 6.0 12.0 0.00 0.00 0.00 90 1015.2
20210624150017 82 171 7.0 16.0 0.00 0.00 0.00 90 1015.2
20210624144608 82 184 8.0 15.0 0.00 0.00 0.00 90 1015.3
20210624143008 82 177 7.0 14.0 0.00 0.00 0.00 90 1015.3
20210624141554 81 196 5.0 10.0 0.00 0.00 0.00 90 1015.3
20210624140044 81 181 4.0 14.0 0.00 0.00 0.00 90 1015.4
20210624134620 80 186 4.0 12.0 0.00 0.00 0.00 89 1015.2
20210624133039 79 119 4.0 9.0 0.00 0.00 0.00 89 1015.1
20210624130112 79 202 4.0 10.0 0.00 0.00 0.00 88 1015.0
20210624124504 78 151 4.0 9.0 0.00 0.00 0.00 88 1014.8
20210624123049 78 154 3.0 9.0 0.00 0.00 0.00 88 1014.7
20210624121609 77 165 3.0 7.0 0.00 0.00 0.00 88 1014.7
20210624120127 77 153 3.0 9.0 0.00 0.00 0.00 87 1014.6
20210624114536 77 143 4.0 10.0 0.00 0.00 0.00 87 1014.6
20210624113045 77 132 4.0 7.0 0.00 0.00 0.00 87 1014.6
20210624111502 77 145 4.0 8.0 0.00 0.00 0.00 87 1014.6
20210624110130 77 157 3.0 8.0 0.00 0.00 0.00 87 1014.6
20210624104529 77 140 4.0 8.0 0.00 0.00 0.00 86 1014.5
20210624103116 77 141 4.0 7.0 0.00 0.00 0.00 86 1014.6
20210624101550 77 123 3.0 7.0 0.00 0.00 0.00 86 1014.6
20210624100011 77 113 3.0 5.0 0.00 0.00 0.00 86 1014.6
20210624094608 77 142 2.0 5.0 0.00 0.00 0.00 86 1014.6
20210624093029 77 135 2.0 4.0 0.00 0.00 0.00 85 1014.6
20210624091635 77 135 2.0 4.0 0.00 0.00 0.00 85 1014.6
20210624090059 76 118 2.0 4.0 0.00 0.00 0.00 85 1014.5
20210624084512 76 102 2.0 4.0 0.00 0.00 0.00 85 1014.5
20210624083139 76 130 2.0 6.0 0.00 0.00 0.00 85 1014.6
20210624081555 76 124 2.0 4.0 0.00 0.00 0.00 84 1014.5
20210624080047 77 120 3.0 4.0 0.00 0.00 0.00 84 1014.4
20210624074527 77 136 2.0 4.0 0.00 0.00 0.00 84 1014.4
20210624073144 77 139 3.0 8.0 0.00 0.00 0.00 83 1014.6
20210624071618 78 123 3.0 5.0 0.00 0.00 0.00 83 1014.6
20210624070027 78 146 4.0 9.0 0.00 0.00 0.00 83 1014.4
20210624064704 78 174 3.0 9.0 0.00 0.00 0.00 82 1014.5
20210624063035 79 154 3.0 8.0 0.00 0.00 0.00 82 1014.5